Weather in Tuskharoy

Russia / Chechen Republic     42°43′33″N   45°31′45″E
temp.,
°C
wind,
m/s
gust,
m/s
humid.,
%
clouds,
%
prec.,
mm/h
press.,
hPa
HPBL,
m
25 february, thu
thu2500:00−12ssw33450 0.0 104023
03:00−12ssw33440 0.0 103823
06:00−11ssw334422 0.0 103824
09:00−4wsw116159 0.0 103775
12:00−1nne116496 0.0 1035456
15:00−1ne117276 0.0 1032425
18:00−7ssw22825 0.0 103321
21:00−9sw227220 0.0 103321
26 february, fri
fri2600:00−7sw1170100 0.0 103121
03:00−6sw0172100 0.0 103021
06:00−6ssw2280100 0.1 102921
09:00−1nnw1178100 0.1 1028265
12:00−1ne119095 0.0 1026366
15:00−1nne119382 0.0 1024308
18:00−3nne009899 0.1 102537
21:00−5sw118997 0.1 102621
27 february, sat
sat2700:00−7sw227337 0.0 102425
03:00−6sw226318 0.0 102425
06:00−7sw22630 0.0 102324
09:00−1nne01720 0.0 1021123
12:000nne21888 0.0 1019401
15:000nne219326 0.0 1017256
18:00−2ssw118958 0.0 101726
21:00−5sw226641 0.0 101726
28 february, sun
sun2800:00−5ssw33630 0.0 101632
03:00−5ssw33640 0.0 101538
06:00−5ssw33660 0.0 101542
09:00−1ne11720 0.0 1014353
12:00−1nne229330 0.0 1013311
15:00−3nne229663 0.4 1014211
18:00−5ne1297100 0.9 101689
21:00−5nne1197100 1.9 101874
1 march, mon
mon100:00−6ne1197100 0.9 101959
03:00−7nne1197100 1.7 102086
06:00−6n1297100 1.5 1022115
09:00−6nne2395100 2.9 1023296
12:00−5nne3394100 1.5 1024406
15:00−5nne3395100 3.8 1024352
18:00−7ne1297100 1.7 1026111
21:00−8nne1197100 2.5 102848